Time,TemperatureF,DewpointF,PressureIn,WindDirection,WindDirectionDegrees,WindSpeedMPH,WindSpeedGustMPH,Humidity,HourlyPrecipIn,Conditions,Clouds,dailyrainin,SolarRadiationWatts/m^2,SoftwareType,DateUTC
2013-03-05 00:04:00,62.4,45.0,29.79,NNW,343,7.0,10.0,53,0.00,,,0.00,0,Wunderground v.1.15,2013-03-05 06:04:00,
2013-03-05 00:10:00,60.7,44.4,29.81,NNW,335,8.0,8.0,55,0.00,,,0.00,0,Wunderground v.1.15,2013-03-05 06:10:00,
2013-03-05 00:15:00,59.7,44.0,29.82,NNW,345,9.0,11.0,56,0.00,,,0.00,0,Wunderground v.1.15,2013-03-05 06:15:00,
2013-03-05 00:21:00,58.3,43.6,29.82,NNW,330,8.0,10.0,58,0.00,,,0.00,0,Wunderground v.1.15,2013-03-05 06:21:00,
2013-03-05 00:26:00,57.4,43.2,29.82,NW,321,8.0,13.0,59,0.00,,,0.00,0,Wunderground v.1.15,2013-03-05 06:26:00,
2013-03-05 00:32:00,56.6,43.3,29.82,NNW,334,9.0,13.0,61,0.00,,,0.00,0,Wunderground v.1.15,2013-03-05 06:32:00,
2013-03-05 00:37:00,56.2,43.3,29.83,NNW,340,8.0,13.0,62,0.00,,,0.00,0,Wunderground v.1.15,2013-03-05 06:37:00,
2013-03-05 00:43:00,55.7,43.3,29.84,NNW,339,8.0,13.0,63,0.00,,,0.00,0,Wunderground v.1.15,2013-03-05 06:43:00,
2013-03-05 00:49:00,55.5,43.1,29.86,NNW,327,9.0,13.0,63,0.00,,,0.00,0,Wunderground v.1.15,2013-03-05 06:49:00,
2013-03-05 00:54:00,55.3,42.9,29.87,NW,306,7.0,8.0,63,0.00,,,0.00,0,Wunderground v.1.15,2013-03-05 06:54:00,
2013-03-05 01:00:00,55.0,42.6,29.90,WSW,257,7.0,7.0,63,0.00,,,0.00,0,Wunderground v.1.15,2013-03-05 07:00:00,
2013-03-05 01:05:00,54.6,42.3,29.90,NNW,342,8.0,13.0,63,0.00,,,0.00,0,Wunderground v.1.15,2013-03-05 07:05:00,
2013-03-05 01:11:00,53.9,41.6,29.90,NNW,343,8.0,11.0,63,0.00,,,0.00,0,Wunderground v.1.15,2013-03-05 07:11:00,
2013-03-05 01:17:00,53.2,41.3,29.92,WNW,300,8.0,14.0,64,0.00,,,0.00,0,Wunderground v.1.15,2013-03-05 07:17:00,
2013-03-05 01:22:00,52.7,40.9,29.93,NNW,331,7.0,11.0,64,0.00,,,0.00,0,Wunderground v.1.15,2013-03-05 07:22:00,
2013-03-05 01:28:00,52.0,40.6,29.94,NW,315,8.0,17.0,65,0.00,,,0.00,0,Wunderground v.1.15,2013-03-05 07:28:00,
2013-03-05 01:33:00,51.6,40.6,29.96,NNE,32,7.0,10.0,66,0.00,,,0.00,0,Wunderground v.1.15,2013-03-05 07:33:00,
2013-03-05 01:39:00,51.3,40.3,29.96,North,5,7.0,11.0,66,0.00,,,0.00,0,Wunderground v.1.15,2013-03-05 07:39:00,
2013-03-05 01:44:00,51.0,40.4,29.96,NW,304,8.0,11.0,67,0.00,,,0.00,0,Wunderground v.1.15,2013-03-05 07:44:00,
2013-03-05 01:50:00,50.8,40.2,29.97,North,360,10.0,12.0,67,0.00,,,0.00,0,Wunderground v.1.15,2013-03-05 07:50:00,
2013-03-05 01:55:00,50.6,40.0,29.97,NNW,331,9.0,12.0,67,0.00,,,0.00,0,Wunderground v.1.15,2013-03-05 07:55:00,
2013-03-05 02:00:00,50.5,39.9,29.98,North,355,8.0,8.0,67,0.00,,,0.00,0,Wunderground v.1.15,2013-03-05 08:00:00,
2013-03-05 02:06:00,50.3,39.8,29.98,WNW,300,9.0,11.0,67,0.00,,,0.00,0,Wunderground v.1.15,2013-03-05 08:06:00,
2013-03-05 02:11:00,50.2,39.7,29.98,WNW,299,8.0,11.0,67,0.00,,,0.00,0,Wunderground v.1.15,2013-03-05 08:11:00,
2013-03-05 02:17:00,50.1,39.6,30.00,WNW,302,8.0,11.0,67,0.00,,,0.00,0,Wunderground v.1.15,2013-03-05 08:17:00,
2013-03-05 02:23:00,50.0,39.5,29.99,NNW,331,9.0,16.0,67,0.00,,,0.00,0,Wunderground v.1.15,2013-03-05 08:23:00,
2013-03-05 02:28:00,49.9,39.4,29.98,North,360,10.0,17.0,67,0.00,,,0.00,0,Wunderground v.1.15,2013-03-05 08:28:00,
2013-03-05 02:34:00,49.8,39.3,29.97,North,5,12.0,18.0,67,0.00,,,0.00,0,Wunderground v.1.15,2013-03-05 08:34:00,
2013-03-05 02:39:00,49.8,38.9,29.98,NW,326,11.0,18.0,66,0.00,,,0.00,0,Wunderground v.1.15,2013-03-05 08:39:00,
2013-03-05 02:45:00,49.7,38.4,30.00,NNE,16,9.0,13.0,65,0.00,,,0.00,0,Wunderground v.1.15,2013-03-05 08:45:00,
2013-03-05 02:51:00,49.7,38.4,30.02,WNW,293,9.0,9.0,65,0.00,,,0.00,0,Wunderground v.1.15,2013-03-05 08:51:00,
2013-03-05 02:56:00,49.7,38.0,30.03,NW,317,8.0,16.0,64,0.00,,,0.00,0,Wunderground v.1.15,2013-03-05 08:56:00,
2013-03-05 03:02:00,49.7,37.6,30.04,NNE,28,7.0,14.0,63,0.00,,,0.00,0,Wunderground v.1.15,2013-03-05 09:02:00,
2013-03-05 03:08:00,49.8,36.9,30.06,NNE,13,8.0,14.0,61,0.00,,,0.00,0,Wunderground v.1.15,2013-03-05 09:08:00,
2013-03-05 03:14:00,49.9,36.6,30.09,NNW,340,8.0,10.0,60,0.00,,,0.00,0,Wunderground v.1.15,2013-03-05 09:14:00,
2013-03-05 03:20:00,50.0,36.2,30.09,NW,309,9.0,9.0,59,0.00,,,0.00,0,Wunderground v.1.15,2013-03-05 09:20:00,
2013-03-05 03:26:00,50.0,36.2,30.08,North,355,7.0,12.0,59,0.00,,,0.00,0,Wunderground v.1.15,2013-03-05 09:26:00,
2013-03-05 03:31:00,50.0,35.8,30.07,North,5,7.0,13.0,58,0.00,,,0.00,0,Wunderground v.1.15,2013-03-05 09:31:00,
2013-03-05 03:36:00,49.9,35.3,30.08,NW,324,9.0,16.0,57,0.00,,,0.00,0,Wunderground v.1.15,2013-03-05 09:36:00,
2013-03-05 03:42:00,49.9,35.3,30.09,NNW,340,9.0,10.0,57,0.00,,,0.00,0,Wunderground v.1.15,2013-03-05 09:42:00,
2013-03-05 03:47:00,49.9,35.3,30.10,NE,34,8.0,21.0,57,0.00,,,0.00,0,Wunderground v.1.15,2013-03-05 09:47:00,
2013-03-05 03:53:00,49.9,34.8,30.11,NNW,338,10.0,14.0,56,0.00,,,0.00,0,Wunderground v.1.15,2013-03-05 09:53:00,
2013-03-05 03:58:00,49.9,34.8,30.11,NNW,329,9.0,14.0,56,0.00,,,0.00,0,Wunderground v.1.15,2013-03-05 09:58:00,
2013-03-05 04:04:00,49.9,35.3,30.12,NNW,340,8.0,9.0,57,0.00,,,0.00,0,Wunderground v.1.15,2013-03-05 10:04:00,
2013-03-05 04:10:00,49.9,35.3,30.10,NNW,336,8.0,10.0,57,0.00,,,0.00,0,Wunderground v.1.15,2013-03-05 10:10:00,
2013-03-05 04:15:00,49.8,35.2,30.12,NNW,328,9.0,13.0,57,0.00,,,0.00,0,Wunderground v.1.15,2013-03-05 10:15:00,
2013-03-05 04:21:00,49.7,35.1,30.12,NNW,340,8.0,8.0,57,0.00,,,0.00,0,Wunderground v.1.15,2013-03-05 10:21:00,
2013-03-05 04:27:00,49.6,35.4,30.13,NNE,12,6.0,11.0,58,0.00,,,0.00,0,Wunderground v.1.15,2013-03-05 10:27:00,
2013-03-05 04:33:00,49.4,35.2,30.14,NNE,17,9.0,17.0,58,0.00,,,0.00,0,Wunderground v.1.15,2013-03-05 10:33:00,
2013-03-05 04:39:00,49.2,35.0,30.14,North,349,10.0,17.0,58,0.00,,,0.00,0,Wunderground v.1.15,2013-03-05 10:39:00,
2013-03-05 04:44:00,49.0,35.3,30.14,NNE,12,8.0,10.0,59,0.00,,,0.00,0,Wunderground v.1.15,2013-03-05 10:44:00,
2013-03-05 04:50:00,48.8,35.1,30.14,NNE,14,8.0,8.0,59,0.00,,,0.00,0,Wunderground v.1.15,2013-03-05 10:50:00,
2013-03-05 04:56:00,48.6,35.3,30.14,North,355,7.0,8.0,60,0.00,,,0.00,0,Wunderground v.1.15,2013-03-05 10:56:00,
2013-03-05 05:01:00,48.5,35.7,30.14,North,355,5.0,5.0,61,0.00,,,0.00,0,Wunderground v.1.15,2013-03-05 11:01:00,
2013-03-05 05:07:00,48.3,35.5,30.14,NNE,12,5.0,9.0,61,0.00,,,0.00,0,Wunderground v.1.15,2013-03-05 11:07:00,
2013-03-05 05:13:00,48.1,35.7,30.14,NNW,348,6.0,7.0,62,0.00,,,0.00,0,Wunderground v.1.15,2013-03-05 11:13:00,
2013-03-05 05:18:00,48.0,35.6,30.15,NNE,27,6.0,9.0,62,0.00,,,0.00,0,Wunderground v.1.15,2013-03-05 11:18:00,
2013-03-05 05:24:00,47.9,35.5,30.15,WNW,300,5.0,7.0,62,0.00,,,0.00,0,Wunderground v.1.15,2013-03-05 11:24:00,
2013-03-05 05:29:00,47.8,35.4,30.16,WNW,296,5.0,9.0,62,0.00,,,0.00,0,Wunderground v.1.15,2013-03-05 11:29:00,
2013-03-05 05:35:00,47.8,34.6,30.16,North,9,6.0,11.0,60,0.00,,,0.00,0,Wunderground v.1.15,2013-03-05 11:35:00,
2013-03-05 05:41:00,47.7,33.6,30.16,NNE,15,7.0,9.0,58,0.00,,,0.00,0,Wunderground v.1.15,2013-03-05 11:41:00,
2013-03-05 05:46:00,47.7,32.8,30.17,NNW,340,8.0,10.0,56,0.00,,,0.00,0,Wunderground v.1.15,2013-03-05 11:46:00,
2013-03-05 05:52:00,47.6,31.8,30.18,North,350,8.0,16.0,54,0.00,,,0.00,0,Wunderground v.1.15,2013-03-05 11:52:00,
2013-03-05 05:57:00,47.6,31.8,30.18,NNW,336,7.0,16.0,54,0.00,,,0.00,0,Wunderground v.1.15,2013-03-05 11:57:00,
2013-03-05 06:03:00,47.4,31.6,30.19,North,5,7.0,10.0,54,0.00,,,0.00,0,Wunderground v.1.15,2013-03-05 12:03:00,
2013-03-05 06:09:00,47.3,30.5,30.19,North,355,7.0,10.0,52,0.00,,,0.00,0,Wunderground v.1.15,2013-03-05 12:09:00,
2013-03-05 06:14:00,47.2,30.5,30.20,NNE,26,8.0,12.0,52,0.00,,,0.00,0,Wunderground v.1.15,2013-03-05 12:14:00,
2013-03-05 06:20:00,47.0,30.3,30.20,NW,310,8.0,8.0,52,0.00,,,0.00,0,Wunderground v.1.15,2013-03-05 12:20:00,
2013-03-05 06:25:00,46.9,30.6,30.20,North,355,7.0,12.0,53,0.00,,,0.00,0,Wunderground v.1.15,2013-03-05 12:25:00,
2013-03-05 06:31:00,46.7,30.5,30.20,NNW,330,7.0,9.0,53,0.00,,,0.00,0,Wunderground v.1.15,2013-03-05 12:31:00,
2013-03-05 06:36:00,46.6,29.9,30.21,NNW,346,8.0,11.0,52,0.00,,,0.00,0,Wunderground v.1.15,2013-03-05 12:36:00,
2013-03-05 06:42:00,46.5,30.3,30.21,North,355,8.0,11.0,53,0.00,,,0.00,0,Wunderground v.1.15,2013-03-05 12:42:00,
2013-03-05 06:48:00,46.3,31.0,30.22,NW,315,7.0,11.0,55,0.00,,,0.00,0,Wunderground v.1.15,2013-03-05 12:48:00,
2013-03-05 06:53:00,46.0,30.7,30.22,NNE,25,6.0,10.0,55,0.00,,,0.00,7,Wunderground v.1.15,2013-03-05 12:53:00,
2013-03-05 06:59:00,45.8,31.0,30.23,NNW,346,6.0,10.0,56,0.00,,,0.00,14,Wunderground v.1.15,2013-03-05 12:59:00,
2013-03-05 07:05:00,45.5,30.7,30.23,North,5,6.0,7.0,56,0.00,,,0.00,21,Wunderground v.1.15,2013-03-05 13:05:00,
2013-03-05 07:10:00,45.4,30.2,30.23,NNE,15,6.0,6.0,55,0.00,,,0.00,26,Wunderground v.1.15,2013-03-05 13:10:00,
2013-03-05 07:16:00,45.3,30.1,30.24,NNW,332,6.0,8.0,55,0.00,,,0.00,33,Wunderground v.1.15,2013-03-05 13:16:00,
2013-03-05 07:22:00,45.2,30.0,30.24,NNW,343,7.0,9.0,55,0.00,,,0.00,47,Wunderground v.1.15,2013-03-05 13:22:00,
2013-03-05 07:27:00,45.3,30.1,30.25,North,5,7.0,10.0,55,0.00,,,0.00,77,Wunderground v.1.15,2013-03-05 13:27:00,
2013-03-05 07:33:00,45.3,30.5,30.25,NNW,338,6.0,10.0,56,0.00,,,0.00,127,Wunderground v.1.15,2013-03-05 13:33:00,
2013-03-05 07:38:00,45.5,30.7,30.25,North,355,6.0,10.0,56,0.00,,,0.00,156,Wunderground v.1.15,2013-03-05 13:38:00,
2013-03-05 07:44:00,45.6,30.8,30.25,North,355,6.0,9.0,56,0.00,,,0.00,186,Wunderground v.1.15,2013-03-05 13:44:00,
2013-03-05 07:49:00,45.8,31.0,30.25,NNE,21,6.0,10.0,56,0.00,,,0.00,207,Wunderground v.1.15,2013-03-05 13:49:00,
2013-03-05 07:55:00,46.0,31.2,30.26,North,355,6.0,9.0,56,0.00,,,0.00,234,Wunderground v.1.15,2013-03-05 13:55:00,
2013-03-05 08:01:00,46.2,31.4,30.26,NW,306,6.0,6.0,56,0.00,,,0.00,253,Wunderground v.1.15,2013-03-05 14:01:00,
2013-03-05 08:06:00,46.3,31.0,30.27,NNW,342,8.0,15.0,55,0.00,,,0.00,278,Wunderground v.1.15,2013-03-05 14:06:00,
2013-03-05 08:12:00,46.5,31.2,30.26,NW,323,7.0,7.0,55,0.00,,,0.00,299,Wunderground v.1.15,2013-03-05 14:12:00,
2013-03-05 08:17:00,46.8,31.5,30.26,NW,325,6.0,13.0,55,0.00,,,0.00,318,Wunderground v.1.15,2013-03-05 14:17:00,
2013-03-05 08:23:00,46.8,30.6,30.26,North,355,7.0,12.0,53,0.00,,,0.00,341,Wunderground v.1.15,2013-03-05 14:23:00,
2013-03-05 08:28:00,47.0,30.7,30.27,NNE,12,7.0,12.0,53,0.00,,,0.00,359,Wunderground v.1.15,2013-03-05 14:28:00,
2013-03-05 08:34:00,47.5,30.7,30.27,NNE,16,6.0,8.0,52,0.00,,,0.00,378,Wunderground v.1.15,2013-03-05 14:34:00,
2013-03-05 08:39:00,47.8,30.0,30.27,NNW,342,6.0,8.0,50,0.00,,,0.00,397,Wunderground v.1.15,2013-03-05 14:39:00,
2013-03-05 08:45:00,48.0,29.7,30.28,NNW,329,7.0,17.0,49,0.00,,,0.00,420,Wunderground v.1.15,2013-03-05 14:45:00,
2013-03-05 08:51:00,48.2,28.9,30.28,North,360,7.0,8.0,47,0.00,,,0.00,441,Wunderground v.1.15,2013-03-05 14:51:00,
2013-03-05 08:56:00,47.9,28.1,30.28,NNW,336,8.0,11.0,46,0.00,,,0.00,457,Wunderground v.1.15,2013-03-05 14:56:00,
2013-03-05 09:02:00,47.8,28.0,30.28,NNW,339,9.0,10.0,46,0.00,,,0.00,476,Wunderground v.1.15,2013-03-05 15:02:00,
2013-03-05 09:08:00,47.9,27.6,30.29,North,5,9.0,12.0,45,0.00,,,0.00,499,Wunderground v.1.15,2013-03-05 15:08:00,
2013-03-05 09:13:00,48.2,27.8,30.29,North,360,9.0,12.0,45,0.00,,,0.00,517,Wunderground v.1.15,2013-03-05 15:13:00,
2013-03-05 09:19:00,48.5,27.6,30.29,NE,35,9.0,14.0,44,0.00,,,0.00,533,Wunderground v.1.15,2013-03-05 15:19:00,
2013-03-05 09:24:00,49.1,27.5,30.30,NNW,348,7.0,10.0,43,0.00,,,0.00,547,Wunderground v.1.15,2013-03-05 15:24:00,
2013-03-05 09:30:00,49.5,26.7,30.30,NW,311,8.0,8.0,41,0.00,,,0.00,564,Wunderground v.1.15,2013-03-05 15:30:00,